Other Public Products
Issued by NWS Charleston, SC

Current Version | Previous Version | Text Only | Print | Product List | Glossary Off
Versions: 1 2 3 4 5 6 7 8 9 10 11 12 13 14 15 16 17 18 19 20 21 22 23 24 25 26 27 28 29 30 31 32 33 34 35 36 37 38 39 40 41 42 43 44 45 46 47 48 49 50

000
FPUS82 KCHS 210412
OPUCHS

TEST...KCHS/KSAV Gateway Observations...TEST
National Weather Service Charleston SC
1200 AM EDT MON MAY 21 2018

NOTE: "fair" indicates few or no clouds below 12,000 feet with no
significant weather and/or obstructions to visibility.

SCZ050-WAZ558-NCZ071-TXZ119-213-PAZ071-DCZ001-FLZ074-172-MI076-
NYZ176-178-MAZ016-IL014-TNZ027-NJZ106-GAZ044-MD014-210500-

...Gateway Observations for Charleston International...

CITY           SKY/WX    TMP DP  RH WIND       PRES   REMARKS
Chas Airport   MOCLDY    73  71  93 SW3       30.16S
Seattle        MOCLDY    62  52  69 N6        30.04R
Charlotte      CLOUDY    68  67  96 CALM      30.16R
Dallas DFW     CLOUDY    73  65  75 S5        29.99S
Dallas Love    CLOUDY    74  66  76 S3        30.01R
Philladelphia  FAIR      69  58  67 N9        30.08R
Wash National  MOCLDY    74  64  71 NE9       30.07R
Baltimore      MOCLDY    73  63  70 N3        30.06R
Miami          CLOUDY    75  73  93 E10       30.06F
Detroit        CLOUDY    57  49  74 E7        30.21R
Newark         FAIR      67  53  61 N7        30.06S
Laguardia      FAIR      68  53  58 NW9       30.05S
J F K          MOCLDY    68  55  63 N8        30.06R
Boston Logan   FAIR      65  54  67 NW9       30.01R
Ft. Lauderdale MOCLDY    75  74  96 S12G20    30.05S
Chicago O`Hare CLOUDY    49  42  77 NE7       30.19S
Chicago Midway FAIR      49  44  83 NE8       30.19S
Houston Bush   CLOUDY    70  69  97 SW3       29.99R
Houston Hobby  MOCLDY    71  70  96 SE10      29.98F
Nashville      CLOUDY    69  66  90 CALM      30.15F
Atlanta        CLOUDY    70  67  90 S5        30.19R

$$

GAZ044-118-TXZ119-213-NCZ071-DCZ001-MDZ014-506-PAZ021-071-NJZ106-
NYZ176-178-MAZ106-OHZ011-021-055-MIZ076-KYZ091-ILZ014-INZ047-
MNZ060-ONZ431-210500-

...Gateway Observations for Savannah International...

CITY           SKY/WX    TMP DP  RH WIND       PRES   REMARKS
Savannah Arpt  FAIR      72  70  93 CALM      30.16F
Atlanta        CLOUDY    70  67  90 S5        30.19R
Charlotte      CLOUDY    68  67  96 CALM      30.16R
Dallas DFW     CLOUDY    73  65  75 S5        29.99S
Houston Bush   CLOUDY    70  69  97 SW3       29.99R
Wash National  MOCLDY    74  64  71 NE9       30.07R
Wash Dulles    MOCLDY    73  63  70 NE5       30.07S
Baltimore      MOCLDY    73  63  70 N3        30.06R
Philadelphia   FAIR      69  58  67 N9        30.08R
Newark         FAIR      67  53  61 N7        30.06S
Laguardia      FAIR      68  53  58 NW9       30.05S
J F K          MOCLDY    68  55  63 N8        30.06R
Boston         FAIR      65  54  67 NW9       30.01R
Pittsburg      FAIR      63  56  78 N7        30.15S
Akron          MOCLDY    58  53  84 N7        30.18R
Cleveland      MOCLDY    57  51  80 N6        30.20S
Cincinnati     FAIR      68  63  84 S5        30.10F
Columbus       FAIR      64  61  87 MISG      30.13R
Detroit        CLOUDY    57  49  74 E7        30.21R
Chicago O`Hare CLOUDY    49  42  77 NE7       30.19S
Minneapolis    MOCLDY    64  34  32 E6        30.13S
Indianapolis   MOCLDY    72  64  76 E7        30.11R
Toronto Canada PTCLDY    50  34  53 N8        30.18R

$$




USA.gov is the U.S. government's official web portal to all federal, state and local government web resources and services.